Weather in Fredericia

Denmark     55°34′13″N   9°45′11″E
В апреле 2022 года жителям России запретили посещать сайт meteo.paraplan.net по решению Генеральной прокуратуры. Аудитория сайта уменьшилась в 10 раз. Владельцы сайта не видят смысла в поддержке погодного сервера в таких условиях. Сайт будет закрыт в октябре.
temp.,
°C
wind,
m/s
gust,
m/s
humid.,
%
clouds,
%
prec.,
mm/h
press.,
hPa
HPBL,
m
6 october, thu
thu623:00+15sw132184100 0.3 1006885
02:00+13w1015838 0.6 10091120
05:00+13wsw12178012 0.1 10121249
08:00+12w1217780 0.1 10151235
11:00+14wsw1217750 0.0 10191348
14:00+15wsw1217710 0.1 10211311
17:00+14wsw1216730 0.0 10211135
20:00+13wsw1015796 0.0 10231011
7 october, fri
fri723:00+14wsw10158114 0.0 1022931
02:00+14sw9158288 0.0 1021876
05:00+13sw10158621 0.0 1020781
08:00+13ssw10168992 0.0 1018774
11:00+14sw11158298 0.0 1017838
14:00+14ssw111583100 0.1 1015999
17:00+15sw12178099 0.3 10121091
20:00+14sw12188384 0.6 1011991
8 october, sat
sat823:00+13w81382100 0.9 1010931
02:00+12sw9128499 1.4 1009738
05:00+11w610860 1.1 1009541
08:00+11w6108318 1.2 1010571
11:00+13w81072100 0.0 10121037
14:00+14wnw810634 0.1 10131328
17:00+13wnw811673 0.1 10151289
20:00+11w7117728 0.1 1017800
9 october, sun
sun923:00+10w610815 0.0 1019487
02:00+10w69785 0.0 1020365
05:00+10wsw477766 0.0 1020207
08:00+10sw468276 0.0 1020187
11:00+12ssw687420 0.0 1020476
14:00+14sw8971100 0.1 1019737
17:00+13ssw7970100 0.0 1017936
20:00+13s81372100 0.0 1015827
10 october, mon
mon1023:00+13s91668100 0.0 1012722
02:00+12s101767100 0.0 1009606
05:00+12ssw91673100 0.0 1007533
08:00+13sw101788100 0.8 1006791
11:00+12wnw8127390 1.3 1010922
14:00+14wnw912615 1.3 10141412
17:00+13wnw811650 0.0 10161301
20:00+11w610721 0.0 1020875